COSMOS 2251 DEB, 34560

Orbit data source: Space-Track

COSMOS 2251 DEB, 34560 is space debris in LEO originally from a launch on Wed, 16 Jun 1993 UTC launched from the Plesetsk Missile And Space Complex (PKMTR). The debris from Iridium 33, an American commercial communications satellite, has been tracked extensively since its accidental collision with the defunct Russian satellite Cosmos 2251 in 2009. This event, occurring at high speed in low Earth orbit (LEO), generated thousands of pieces of space debris, significantly increasing the risk of further collisions. The Iridium 33 debris cloud has impacted space traffic management and orbital debris mitigation strategies, making it a subject of ongoing study in space situational awareness.

Loading next visibility...
Identifier
34560, 1993-036UW
Orbit
LEO
Country
Flag of CISCIS
Related business
Manufacturer
Unknown
Mission
Spacecraft
Bus & Motor
Unknown
Mass
Unknown
Launch date (UTC)
1993-06-16 (32 years ago)
Launch vehicle
Unknown
Launch site
Plesetsk Missile And Space Complex (PKMTR)
Object type
Payload
Rocket body
Debris
Shape & HBR
Unknown shape, 0.1 m
Radar Cross Section
Small (<0.1 m²)

Expand to show TLE details & history
Last TLE update: 14 hours ago

TLE from 14 hours ago
0 COSMOS 2251 DEB
1 34560U 93036UW  25303.19780279  .00017164  00000-0  28126-2 0  9995
2 34560  74.0172 226.8261 0017125 310.0733 168.9149 14.70631661876117
Epoch: 2025-10-30T04:44Z
TLE epoch observation values (Epoch: 2025-10-30T04:44:50.161Z)
Latitude
57.31268°
Longitude
-89.49966°
Altitude
680.157 km
Speed
7.516 km/s
True Right ascension
01h 21m 52s
True Declination
57° 09' 16"
Sunlit
Object was in full shadow at epoch
Visualization orbit readout
Latitude
Unknown
Longitude
Unknown
Altitude
Unknown
Speed
Unknown
Apparent Right ascension
Unknown
Apparent Declination
Unknown
Sunlit
N/A
Visualization observer readout
Local Sidereal Time
14:51:34
Azimuth
Unknown
Elevation
Unknown
Doppler factor
Unknown
Orbital elements
Apogee altitude
668.687 km
Perigee altitude
644.593 km
Semi-major axis
7,034.777 km
Eccentricity
0.00171
Inclination
74.0172°
RAAN
226.8261°
Arg. of periapsis
310.0733°
True anomaly
168.95255°
Mean anomaly
168.9149°
Eccentric anomaly
168.93373°
Mean motion
3.67847 °/min
Orbital period
97.87 mins
BSTAR
0.0028126

Documentation

Showing up to 5 results
|